Date,TemperatureHighF,TemperatureAvgF,TemperatureLowF,DewpointHighF,DewpointAvgF,DewpointLowF,HumidityHigh,HumidityAvg,HumidityLow,PressureMaxIn,PressureMinIn,WindSpeedMaxMPH,WindSpeedAvgMPH,GustSpeedMaxMPH,PrecipitationSumIn
2013-1-1,67.3,57.4,48.0,62.6,54.7,45.5,93,91,85,30.12,29.89,19,6,19,0.07
2013-1-2,48.0,43.8,40.1,45.5,40.4,35.8,91,88,84,30.26,30.09,18,5,19,0.06
2013-1-3,51.6,43.0,37.8,36.3,33.3,29.1,85,69,51,30.40,30.22,18,6,20,0.05
2013-1-4,54.9,45.9,37.6,36.1,31.8,29.1,76,59,38,30.48,30.32,16,5,16,0.06
2013-1-5,52.9,47.9,45.0,43.5,37.4,33.4,88,68,54,30.36,30.21,15,5,16,0.05
2013-1-6,52.5,47.8,45.0,46.8,43.8,40.3,92,86,78,30.30,30.18,16,5,16,0.06
2013-1-7,58.3,49.4,39.6,44.6,39.4,36.5,90,70,47,30.32,30.15,20,7,20,0.06
2013-1-8,62.2,56.4,50.9,60.3,51.4,41.0,95,84,61,30.19,30.03,27,10,27,0.06
2013-1-9,65.7,62.8,60.3,63.7,61.0,58.3,94,94,93,30.16,30.05,28,12,28,0.06
2013-1-10,69.6,64.8,62.1,67.8,62.9,60.1,95,94,92,30.15,29.94,31,9,31,0.06
2013-1-11,69.6,65.9,61.5,67.6,63.9,59.5,96,93,91,30.08,29.97,14,4,14,0.11
2013-1-12,75.6,70.6,67.6,68.5,67.0,64.0,95,89,69,30.02,29.87,30,10,33,0.10
2013-1-13,74.7,61.8,46.6,69.8,58.9,44.4,96,90,71,30.11,29.78,31,10,31,0.06
2013-1-14,46.6,42.6,37.6,44.4,40.4,35.4,94,92,88,30.16,30.05,26,8,26,0.03
2013-1-15,43.5,41.2,37.2,41.7,39.4,35.4,94,93,91,30.09,29.96,18,4,18,0.03
2013-1-16,37.6,36.6,35.8,35.6,34.4,33.4,93,92,90,30.18,30.01,22,6,24,0.02
2013-1-17,53.2,44.3,35.2,37.6,35.2,31.5,93,72,51,30.43,30.17,22,-2,23,0.03
2013-1-18,57.4,47.2,38.5,40.5,36.2,30.7,86,68,38,30.53,30.38,16,5,18,0.03
2013-1-19,63.1,52.6,41.4,48.4,43.4,37.8,89,72,57,30.38,30.21,14,2,14,0.06
2013-1-20,66.0,54.0,43.2,46.4,42.1,38.1,92,67,37,30.27,30.12,8,1,8,0.06
2013-1-21,66.9,56.3,46.0,49.1,44.6,40.3,83,66,46,30.22,30.13,13,2,14,0.05
2013-1-22,63.0,52.9,45.0,46.0,42.1,36.1,80,67,53,30.35,30.20,15,4,15,0.05
2013-1-23,68.5,57.4,47.5,52.9,48.4,44.4,92,74,45,30.38,30.27,17,5,17,0.04
2013-1-24,70.3,61.4,53.2,59.5,54.8,50.0,90,80,66,30.32,30.20,15,5,15,0.03
2013-1-25,72.7,63.6,56.5,60.3,57.1,52.9,90,80,64,30.24,30.12,25,7,26,0.03
2013-1-26,73.6,63.5,54.5,63.7,58.0,52.3,94,83,60,30.24,30.14,13,2,14,0.01
2013-1-27,72.1,64.5,56.5,60.8,58.1,54.0,93,80,63,30.24,30.14,23,8,24,0.01
2013-1-28,73.8,65.9,60.3,65.1,61.4,57.4,91,86,71,30.23,30.08,24,7,24,0.00
2013-1-29,75.4,69.8,64.9,68.9,65.7,62.1,93,87,76,30.09,29.73,36,13,36,0.01
2013-1-30,72.9,57.2,44.4,68.0,46.2,33.4,92,69,40,30.19,29.67,32,11,35,0.00
2013-1-31,49.1,42.5,40.3,38.5,34.7,32.9,84,74,64,30.30,30.19,8,2,8,0.01
2013-3-11,57.0,53.6,49.3,41.0,39.6,37.9,69,59,50,30.05,29.91,21,-12,22,0.00
2013-3-12,64.8,53.6,43.0,42.1,38.5,35.1,82,58,38,30.22,30.05,18,3,18,0.01
2013-3-13,65.8,56.5,47.1,39.4,32.7,22.6,73,44,20,30.41,30.22,22,5,22,0.00
2013-3-14,66.9,55.7,45.1,46.0,32.2,22.8,74,42,29,30.44,30.28,17,4,18,0.00
2013-3-15,71.8,59.6,48.7,52.9,47.7,42.1,90,68,37,30.31,30.12,26,7,28,0.01
2013-3-16,72.9,63.2,54.3,57.9,54.1,51.3,91,74,52,30.13,29.93,25,8,27,0.00
2013-3-17,75.9,66.6,58.8,64.8,60.1,55.0,91,81,57,29.96,29.79,25,8,25,0.00
2013-3-18,79.9,72.0,65.8,68.0,65.6,61.9,91,81,62,29.91,29.75,22,8,22,0.00
2013-3-19,75.0,65.3,54.0,62.2,50.5,41.2,84,61,37,30.03,29.90,21,8,23,0.00
2013-3-20,69.4,61.2,53.2,55.6,38.7,27.1,78,46,21,30.18,29.98,27,7,30,0.00
2013-3-21,62.4,56.5,49.5,46.6,36.3,28.0,68,47,35,30.06,29.83,20,9,20,0.00
2013-3-22,75.9,65.4,57.0,67.6,59.8,46.6,91,82,68,29.88,29.73,19,7,19,0.00
2013-3-23,68.9,66.8,64.8,66.9,64.5,62.6,94,93,89,29.80,29.55,14,6,15,0.00
2013-3-24,68.9,59.2,47.3,67.1,48.1,32.2,94,70,35,30.04,29.60,31,9,31,0.00
2013-3-25,57.0,47.7,38.5,32.4,27.4,20.8,76,48,29,30.27,30.04,27,8,27,0.00
2013-3-26,53.4,46.3,37.9,30.0,26.1,22.8,63,46,36,30.42,30.27,23,6,24,0.00
2013-3-27,61.2,49.3,37.8,39.0,30.9,27.7,73,51,30,30.45,30.25,16,4,16,0.00
2013-3-28,68.9,56.0,44.1,48.6,41.0,37.9,84,60,34,30.35,30.21,12,3,12,0.00
2013-3-29,72.0,60.7,49.3,53.2,49.2,44.6,86,67,44,30.31,30.16,20,5,20,0.00
2013-3-30,72.9,64.2,56.7,60.3,56.7,52.2,91,78,58,30.19,30.01,25,7,25,0.00
2013-3-31,75.2,62.2,57.6,65.5,58.9,54.7,94,89,69,30.03,29.88,34,5,37,0.11
2013-4-1,75.2,63.9,52.5,59.9,55.8,50.5,94,77,46,30.09,29.94,12,2,13,0.17
2013-4-2,75.6,65.7,57.0,61.0,56.8,52.2,87,74,49,30.10,29.94,18,5,20,0.02
2013-4-3,64.9,59.7,52.0,62.2,56.9,48.9,93,91,86,30.02,29.69,41,8,42,0.43
2013-4-4,54.9,51.1,48.0,49.5,47.8,44.6,93,88,81,30.06,29.91,20,6,21,0.05
2013-4-5,67.5,55.3,47.3,51.8,47.0,43.3,92,75,53,30.19,30.05,19,5,19,0.03
2013-4-6,69.6,60.9,51.3,55.6,51.0,46.0,83,71,54,30.14,30.02,22,6,25,0.01
2013-4-7,73.9,65.8,58.6,61.7,58.2,55.0,89,77,60,30.07,29.94,19,8,19,0.01
2013-4-8,78.3,69.1,61.2,66.0,62.0,58.3,92,79,60,29.99,29.88,27,9,28,0.00
2013-4-9,72.9,71.2,69.6,69.1,67.4,65.8,89,88,87,29.94,29.87,21,9,21,0.00